AirNav   Duncan Aviation - Near you to keep you flying
 
 890 users online  

H04 Vinita Municipal Airport
Vinita, Oklahoma, USA

GOING TO VINITA?


FAA INFORMATION EFFECTIVE 02 DECEMBER 2021

Location

FAA Identifier: H04
Lat/Long: 36-36-52.6186N 095-09-06.1012W
36-36.876977N 095-09.101687W
36.6146163,-95.1516948
(estimated)
Elevation: 695.2 ft. / 212 m (estimated)
Variation: 05E (1985)
From city: 2 miles SE of VINITA, OK
Time zone: UTC -6 (UTC -5 during Daylight Saving Time)
Zip code: 74301

Airport Operations

Airport use: Open to the public
Activation date: 01/1965
Control tower: no
ARTCC: KANSAS CITY CENTER
FSS: MC ALESTER FLIGHT SERVICE STATION
NOTAMs facility: MLC (NOTAM-D service available)
Attendance: UNATNDD
Wind indicator: lighted
Segmented circle: yes
Lights: ACTVT MIRL RWY 17/35 - CTAF.
Beacon: white-green (lighted land airport)
Operates sunset to sunrise.

Airport Communications

CTAF: 122.9
WX AWOS-3 at GMJ (20 nm E): 119.025 (918-786-8350)

Nearby radio navigation aids

VOR radial/distance  VOR name  Freq  Var
OSWr168/32.7OSWEGO VOR/DME117.6008E
EOSr241/37.0NEOSHO VOR/DME117.3007E
TULr043/39.7TULSA VORTAC114.4008E

Airport Services

Parking: tiedowns
Airframe service: NONE
Powerplant service: NONE
Bottled oxygen: NONE
Bulk oxygen: NONE

Runway Information

Runway 17/35

Dimensions: 4209 x 60 ft. / 1283 x 18 m
Surface: asphalt/concrete, in fair condition
Runway edge lights: medium intensity
RUNWAY 17  RUNWAY 35
Latitude: 36-37.223772N36-36.530182N
Longitude: 095-09.102705W095-09.100667W
Elevation: 695.2 ft.678.6 ft.
Traffic pattern: leftleft
Runway heading: 174 magnetic, 179 true354 magnetic, 359 true
Displaced threshold: 210 ft.no
Markings: basic, in good conditionbasic, in good condition
Visual slope indicator: 2-light PAPI on left (3.00 degrees glide path)2-light PAPI on left (3.00 degrees glide path)
Touchdown point: yes, no lightsyes, no lights

Airport Ownership and Management from official FAA records

Ownership: Publicly-owned
Owner: CITY OF VINITA
104 E. ILLINOIS, PO BOX 329
VINITA, OK 74301
Phone 918-256-6468
Manager: ALLEN GOFORTH
747 E. AIRPORT ROAD, 104 E. ILLINOIS
VINITA, OK 74301
Phone 918-244-2704
DIRECTOR OF OPERATIONS. ARPT ATTENDANT: TERRY WILLIAMS 918-397-0193.

Airport Operational Statistics

Aircraft based on the field: 34
Single engine airplanes: 30
Multi engine airplanes: 3
Gliders airplanes: 1
    
Aircraft operations: avg 29/day *
50% transient general aviation
50% local general aviation
* for 12-month period ending 20 February 2020

Additional Remarks

ULTRALIGHT ACTVTY ON & INVOF ARPT.
INTERSTATE HWY 425 FT NORTH OF RY 17 END.
FOR CD CTC KANSAS CITY ARTCC AT 913-254-8508.

Instrument Procedures

There are no published instrument procedures at H04.

Some nearby airports with instrument procedures:

1K8 - South Grand Lake Regional Airport (8 nm SE)
KGMJ - Grove Municipal Airport (20 nm E)
KMIO - Miami Regional Airport (22 nm NE)
H71 - Mid-America Industrial Airport (25 nm S)
KGCM - Claremore Regional Airport (25 nm SW)
 
Loc | Ops | Rwys | IFR | FBO | Links
Com | Nav | Svcs | Stats | Notes
Area around H04 (Vinita Municipal Airport)
 
Road maps at: MapQuest Bing Google
 
Aerial photo
WARNING: Photo may not be current or correct
Aerial photo of H04 (Vinita Municipal Airport)
Photo by Dean Ritter, Aerial Oklahoma

Do you have a better or more recent aerial photo of Vinita Municipal Airport that you would like to share? If so, please send us your photo.

 
Sectional chart

 
Airport distance calculator
Flying to Vinita Municipal Airport? Find the distance to fly.

From to H04

Sunrise and sunset
Times for 03-Dec-2021
 Local
(UTC-6)
 Zulu
(UTC)
Morning civil twilight06:4912:49
Sunrise07:1713:17
Sunset17:0423:04
Evening civil twilight17:3223:32

Current date and time
Zulu (UTC)  04-Dec-2021 02:27:51
Local (UTC-6)  03-Dec-2021 20:27:51
 
METAR
KGMJ 
20nm E 
040215Z AUTO 00000KT 5SM BR CLR 12/12 A3001 RMK AO2
KGCM 
25nm SW 
040215Z AUTO 00000KT 10SM CLR 13/12 A3001 RMK AO2
KH71 
25nm S 
040215Z AUTO 00000KT 10SM CLR 16/14 A2998 RMK AO2
KCFV 
34nm NW 
040152Z AUTO 36008KT 10SM CLR 14/06 A3000 RMK AO2 SLP158 T01390061
TAF
KBVO 
43nm W 
031739Z 0318/0418 18006KT P6SM SCT100 BKN250 FM040100 02010KT P6SM SCT120 BKN250 FM041200 03011G18KT P6SM FEW040 SCT120 BKN250
KTUL 
43nm SW 
031739Z 0318/0418 19008KT P6SM SCT120 BKN250 FM040200 02005KT P6SM SCT100 BKN250 FM040600 02007KT P6SM SCT020 BKN100 FM041200 04010G18KT P6SM BKN020
KJLN 
45nm NE 
031720Z 0318/0418 23011KT P6SM SCT250 FM032300 29005KT P6SM BKN250 FM040200 02006KT P6SM BKN250 FM041500 07012KT P6SM BKN250
KXNA 
46nm SE 
031739Z 0318/0418 20011KT P6SM FEW080 SCT250 FM040500 VRB04KT P6SM SCT015 BKN022 FM041200 07009KT P6SM FEW015 BKN030
NOTAMs
Click for the latest NOTAMs
NOTAMs are issued by the DoD/FAA and will open in a separate window not controlled by AirNav.

 

 
 

Where to Eat: Catering, Restaurants, Food shops

  
 Business Name 
 
 Contact 
 
 Services / Description 
 
Distance
 
Comments
  
McDonald's 918-256-5571
no information available

If you are affiliated with McDonald's and would like to show here your services, contact info, web link, logo, and more, click here
0.1 miles  
   1 read write
 

Would you like to see your business listed on this page?

 If your business provides an interesting product or service to pilots, flight crews, aircraft, or users of the Vinita Municipal Airport, you should consider listing it here.  To start the listing process, click on the button below
 
Add a business
 

Other Pages about Vinita Municipal Airport

Update a link
 
Copyright © AirNav, LLC. All rights reserved. Privacy Policy  Contact